CAPE
1671 1772 1737 1972 1832 1898 2098 2167 2151 2067 2086 2272 2509 2896 2910 2907 2950 3124 3087 3124 3084 3022 3035 2966 2974 2920 2885 2898 2978 2841 2885 2662 2763 2708 2727 2632 2474 2815 2880 2988 2806 2778 2371 2688 2600 2970 2929 2869 2938 2938 2842 2756 2928 2729 2469 2532 2583 2506 2637 2653 2628 2634 2694 2668 2570 2588 2395 2403 2345 2301 2091 1891 1657 1513 1363 1322 971 925 1406 1773 2153 2077 1967 2234 2388
1370 1668 1538 1974 1889 2051 2285 1981 2396 2412 2332 2372 2704 2787 2885 2953 3126 3200 3181 3159 3089 2985 2915 2932 2948 2906 2942 2886 2926 2731 2632 2659 2694 2713 2573 2571 2425 2740 2643 2590 2641 2399 2498 2588 2890 2792 2794 2607 2387 2979 2928 2670 2669 2544 2338 2430 2447 2452 2619 2632 2642 2536 2514 2584 2525 2664 2692 2492 2108 1779 1767 1793 1532 1458 1377 1264 1092 1450 1783 2092 2279 1949 2241 2222 2443
1308 1253 1550 1882 1956 2073 2150 2136 2375 2552 2501 2512 2679 2797 3006 3086 3134 3104 2961 2891 2892 2916 3013 2943 2948 2817 2661 2837 2944 2900 2755 2700 2582 2573 2688 2775 2797 2810 2808 2430 2685 2782 2712 2511 2464 2654 2775 2646 2626 2888 2682 2573 2699 2622 2522 2281 2230 2218 2344 2353 2649 2621 2486 2173 2414 2708 2640 2280 2038 2020 1961 2043 1920 1893 2111 2098 1966 1822 1964 2196 2626 2255 2070 2189 2328
1476 1419 1689 1929 2038 2002 2167 2434 2642 2579 2561 2637 2880 3044 3054 3029 2878 2830 2782 2810 2823 2851 2816 2770 2824 2890 3040 3095 2844 2778 2691 2577 2496 2494 2628 2882 2946 2366 2166 2434 2531 2696 2813 2771 2487 2589 2587 2692 2834 2875 2655 2262 2596 2717 2498 2156 2104 2194 2155 2324 2346 2392 2609 2497 2574 2399 2315 2052 1974 1747 2013 1748 1992 2035 2043 2116 2202 1996 2225 2458 2379 2354 2288 2073 2125
1567 1477 1550 1809 1855 2152 2208 2412 2721 2723 2611 2826 2914 2931 2879 2799 2790 2890 2790 2785 2796 2837 2908 2969 2944 2912 2888 2897 2692 2502 2495 2400 2365 2414 2352 2393 2443 2463 2502 2456 2615 2396 2495 2491 2321 2183 2428 2590 2663 2708 2532 2370 2347 2687 2544 2333 2271 2259 2289 2600 2334 2519 2405 2369 2334 2506 2518 1649 1838 1945 1751 1851 1691 1914 1924 2156 2132 2083 2908 2606 2560 2542 2196 2087 2330
1333 1312 1526 1567 1561 1918 2159 2515 2772 2953 3032 2741 2814 2798 2710 2832 2885 2929 2854 2881 2887 2903 2953 2823 2736 2824 2821 2686 2644 2591 2455 2354 2313 2384 2540 2488 2457 2340 2268 2267 2224 2306 2464 2489 2577 2541 2524 2541 2678 2772 2764 2688 2252 2382 2599 2434 2172 2333 2342 2248 2057 2455 2327 2463 2310 2526 2414 2224 1590 1608 1809 1706 1821 2154 2008 2477 2668 2790 2666 2578 2471 2399 2280 2196 2070
1320 1276 1550 1698 1700 1895 2027 2321 2671 2858 3053 2819 2800 2752 2926 2980 2932 2904 2852 2910 2818 2899 2752 2625 2766 2632 2568 2554 2505 2392 2629 2655 2561 2498 2418 2423 2437 2315 2264 2193 2243 2355 1908 2293 2402 2368 2440 2455 2695 2822 2772 2655 2210 2494 2568 2318 2271 2069 2352 2675 2922 2846 2733 2644 2423 2326 2104 2181 2170 1930 1364 1691 1853 1732 2250 2414 2134 2005 2354 2598 2090 2317 2090 2008 2196
1331 1114 1552 1740 1651 1773 2040 2161 2424 2620 2803 2665 2849 2993 2897 2818 2736 2795 2888 2912 2750 2715 2693 2636 2598 2498 2476 2414 2355 2529 2544 2537 2518 2430 2377 2376 2291 2162 2371 2198 2239 1810 1975 2177 2352 2417 2470 2577 2748 2646 2487 2423 2426 2663 2628 2329 2061 2025 2040 2581 2977 3002 2768 2549 2611 2479 2265 1894 2351 2867 1372 1652 1637 1662 1867 2260 2222 2144 2132 1997 2147 2296 2286 2170 2249
1347 1460 1274 1541 1481 1662 1865 2091 2174 2473 2658 2620 2946 2932 2886 2901 2750 2648 2652 2605 2432 2388 2359 2368 2350 2414 2406 2384 2304 2292 2325 2256 2147 2351 2401 2314 2285 2191 2318 2133 2228 2087 1806 2076 2105 2206 2310 2474 2703 2695 2452 2311 2061 2368 2562 2354 2253 2480 2642 2582 2604 2714 2558 2517 2847 2663 2278 2054 2123 2826 1484 1550 1338 1608 1909 2235 2342 2260 2023 1943 1783 2467 2363 2079 1951
1331 1466 1206 1497 1542 1797 1920 2041 2216 2565 2552 2818 2895 2862 2782 2621 2587 2524 2535 2404 2276 2199 2320 2360 2036 2276 2196 2029 2197 2326 2136 2100 2136 2066 2214 2159 2227 2181 2033 2241 2175 1986 2052 1868 2092 2062 2188 2374 2669 2511 2301 2254 2330 2336 2537 2730 2719 2812 2854 2635 2546 2595 2741 2839 2558 2490 2351 2594 2459 1439 1431 1533 1550 1726 2134 2140 2046 2004 1885 1685 2088 2121 1783 2445 2337
1258 1144 1209 1344 1559 2006 2140 2344 2595 2640 2716 2791 2824 2858 2671 2635 2536 2515 2471 2435 2301 2182 1924 2001 2323 2159 2132 2132 2224 2329 2175 2084 1999 2192 2200 2166 2197 2201 2167 2132 2043 2021 1815 1651 1758 1602 1875 2208 2411 2418 2376 2469 2552 2492 2559 2709 2758 2944 2832 2622 2531 2610 2720 2400 2115 1976 2066 1938 1488 1422 1436 1888 1673 1629 1861 1856 2006 1986 2066 1955 1907 1834 1716 2035 2167
1231 1065 1370 1591 2184 2277 2444 2535 2600 2602 2673 2680 2802 2633 2562 2553 2474 2517 2479 2384 2256 2001 2164 2201 2290 2321 2252 2172 2164 2209 2215 2155 2152 2086 2198 2158 2289 2192 2098 1964 2043 1758 1847 1422 1710 1752 1551 2059 2222 2411 2533 2448 2419 2702 2678 2630 2450 2581 2578 2280 2501 2683 2425 1799 1763 1801 1608 1342 1350 1416 1431 1451 1437 1692 1902 1994 2009 2014 1933 1956 1888 1821 1878 1925 2023
1056 1093 1591 2012 2203 2518 2609 2608 2596 2594 2572 2664 2580 2498 2352 2402 2471 2495 2440 2389 2275 2282 2146 1954 2262 1963 1911 2296 2174 2026 2101 2158 2091 1927 2096 2078 1945 1789 1903 2010 1892 2218 2150 1985 1734 1699 1920 2242 2370 2296 2352 2337 2523 2522 2541 2575 2492 2511 2137 1705 1986 2619 2366 2054 2385 2176 2082 1988 1812 1842 1743 1705 1685 2078 1898 1992 1937 1974 2000 1898 1859 1711 1761 1918 1953
1290 1162 1617 1724 2142 2746 2637 2514 2576 2629 2684 2600 2568 2346 2186 2319 2260 2320 2258 2196 2163 1998 2109 1916 2234 2117 2185 2216 2014 2192 2186 2137 2210 2078 1991 2135 2084 1826 1830 1994 1741 1931 2374 2065 1958 2037 2064 2164 2210 2251 2473 2418 2400 2396 2197 2389 2429 2216 1430 1434 1836 1727 1938 2252 2231 2125 2104 1785 1899 1702 1978 2012 1960 2260 1857 1852 1902 1803 1844 1774 1778 1719 1661 1861 1780
964 1024 1146 1467 1971 2242 2626 2570 2570 2604 2591 2490 2449 2233 2274 2330 2274 2200 2182 2195 2179 2122 1917 2016 2054 1899 2252 2210 2163 2060 2088 2096 1992 2006 2012 1883 1646 1760 1997 1998 2119 2196 2034 1842 2035 2023 2127 2011 2116 2307 2271 2244 2210 2268 2381 2484 2414 2040 1432 1754 1996 2344 2338 2358 2404 2352 1681 1830 1877 1757 1990 2208 2345 2316 2232 2084 1938 1737 1703 1677 1653 1537 1468 1443 1451
866 810 942 995 1498 2178 2390 2633 2522 2368 2252 2323 2215 2107 2228 2309 2280 2118 2005 2080 2017 2070 1853 2011 1873 2138 2295 2200 2128 2136 2073 1949 2036 2026 1971 1882 1881 1804 2032 2136 2209 2179 2183 2174 2175 1995 2021 2049 2147 2152 2085 2103 2194 2297 2420 2543 2542 2147 1514 1647 2359 2832 2819 2629 2624 2321 1538 1650 1912 2078 1961 2192 2457 2470 2382 2191 2068 1934 1885 1855 1765 1680 1614 1489 1664
818 618 503 770 1110 1523 1962 2094 2279 2286 2303 2378 2215 2070 2187 2258 2154 2078 2057 2072 2035 2003 2038 1866 1883 2126 2223 2264 2206 2203 2138 2130 2120 2053 2056 1977 1839 1605 1768 1875 1981 2155 2213 2229 2269 2193 2199 2148 2159 2092 2065 2129 2309 2403 2432 2614 2617 2549 2342 1558 2164 2485 2613 2228 2284 1471 1484 2065 2083 1852 1851 2180 2524 2494 2448 2324 2237 2102 2084 1946 1788 1604 1562 1613 1687
693 469 488 632 1034 1186 1407 1863 2187 2174 2263 2242 2154 2140 2172 2158 2089 1943 2005 2023 2010 1914 1945 1995 1938 1975 2240 2274 2083 1972 2068 2202 2227 2121 2112 1949 1813 1798 1884 1981 2151 2164 2202 2272 2274 2194 2267 2223 2066 1929 1816 2121 2503 2383 2432 2521 2516 2556 2545 2353 1996 2105 2172 1976 2200 1736 1749 1933 2016 2157 2118 2514 2458 2447 2481 2370 2272 2274 2098 1943 1769 1628 1604 1647 1796
651 514 436 471 609 816 1151 1744 1976 1990 2163 2185 2085 2044 1980 1869 1835 1828 1634 1964 2042 1828 1915 2022 2156 2120 2182 2233 2080 2182 2146 2118 2314 2232 2129 1960 1954 1970 2074 2024 2027 1996 1936 2266 2287 2117 2006 1980 2145 2053 2177 2435 2476 2532 2508 2375 2313 2431 2484 2432 2321 2133 1968 1768 1784 1578 1813 1820 1954 2012 2251 2684 2544 2432 2400 2235 2124 2349 2103 2014 1827 1831 1754 1726 1759
392 423 519 505 628 620 1062 1234 1308 1591 1902 1945 1934 1878 1777 1884 1836 1891 1977 1973 2016 1892 2051 2120 2158 2159 2065 2032 2084 2302 2098 2016 2397 2169 2053 1954 1903 1929 2136 2215 2200 2156 2089 2117 2070 2049 2087 2238 2382 2391 2511 2527 2542 2647 2628 2470 2358 2398 2471 2596 2443 2192 2133 2667 1850 1549 1621 1932 2089 2089 2561 2513 2472 2485 2413 2329 2258 2385 2117 2036 1977 1856 1781 1764 1834
310 464 802 848 671 709 1136 937 1245 1572 1568 1691 1894 1924 1777 1892 1784 1908 2003 2077 1990 2048 1977 2141 2258 2188 2076 2020 1883 2070 2387 2310 2036 1849 2059 1886 2133 2049 2221 2357 2339 2208 2239 2161 2193 2272 2265 2236 2353 2433 2713 2754 2789 2862 2715 2642 2476 2505 2642 2058 2589 2408 1821 1673 1545 2004 1878 2171 2288 2149 2618 2524 2441 2366 2200 2097 2022 2023 2011 2041 2017 2019 1849 1796 1808
891 1124 981 1118 1320 1247 1068 951 1138 1336 1412 1728 1777 1912 1930 1824 1820 1846 1848 1626 1964 2091 2217 2197 2268 2101 2071 2121 2265 2298 2443 2385 2108 1797 2149 2146 2211 2215 2366 2452 2284 2160 2148 2167 2279 2345 2377 2314 2336 2536 2831 2918 2757 2440 2667 2678 2614 2389 2870 2826 2426 1857 1506 2474 2036 2024 2033 2135 2265 2395 2508 2306 2388 2372 2259 2177 2126 2072 2050 2047 1968 1922 1861 1831 1686
1334 1416 1273 1185 1484 1939 1564 1022 1593 1594 1272 1195 1729 1905 1861 1950 1920 1906 1813 1946 2030 2069 2132 2228 2315 2116 2126 2166 2392 2457 2400 2459 2428 2118 2088 2277 2373 2347 2299 2388 2288 2259 2202 2453 2540 2436 2414 2422 2405 2462 2753 2987 2397 1916 2051 2304 2442 2926 2666 2846 1677 1357 2034 2139 2015 2124 2146 2166 2148 2363 2299 2303 2364 2301 2164 2014 2016 2057 2038 2034 1936 1825 1752 1692 1688
1272 1307 1442 1457 1656 1709 1505 1298 1658 1539 1585 1532 1812 1906 1959 1917 1816 1884 1667 1993 2058 2035 2088 2308 2509 2299 2214 2243 2183 2318 2377 2593 2078 2181 1836 2139 2101 2196 2266 2486 2497 2475 2495 2512 2647 2666 2529 2458 2640 2615 2769 3131 2300 1717 1609 1915 2043 2484 2904 2974 1355 1220 2089 1967 2007 2039 2059 2115 2353 2570 2458 2351 2315 2197 2158 2109 2100 2139 2148 2133 2058 1895 1724 1677 1687
821 1346 1559 1584 1612 1692 960 1713 1955 1758 1677 1836 1748 1897 2010 1895 1784 1875 1902 2072 2058 2174 2351 2356 2523 2496 2385 2137 2108 2133 2160 2044 2023 2196 2234 2300 2116 2058 2320 2366 2436 2508 2610 2455 2379 2538 2444 2585 2326 2490 2837 2679 2423 1609 1561 1908 2225 2255 2534 979 1407 1340 1363 1670 1857 2081 2245 2307 2449 2396 2431 2368 2222 2257 2233 2125 2108 2091 2112 2185 1974 1915 1792 1772 1772
1202 1125 960 1496 1476 1036 733 1299 1700 1786 1826 1979 2174 2312 2203 2333 2226 2034 1734 2105 1993 2131 2461 2500 2409 2690 2488 2186 2188 2203 2333 2102 1822 2012 2290 2452 2383 2445 2681 2762 2604 2743 2968 2858 2829 2554 2857 2312 2438 2710 2358 2904 2442 1008 1244 1542 1376 1144 1269 1484 1362 1398 1376 1393 1753 2172 2188 2221 2499 2537 2551 2430 2221 2127 2253 2220 2156 2172 2120 2096 1998 1945 1885 1898 1907
1144 1472 1264 1068 1367 1164 731 1034 1756 2004 1846 1712 1861 1958 1643 1801 1946 1866 1737 1907 2142 2245 2533 2273 2212 2174 2064 2381 2207 2140 2378 2312 2130 2282 2375 2423 2546 2535 2478 2772 2563 2594 2962 2787 2727 3137 3008 2910 2825 2467 2951 2898 1511 1033 1350 780 880 860 1013 1214 1353 1218 1493 1459 1578 1820 2036 2251 2385 2338 2353 2329 2186 2118 2014 2008 2089 2148 2123 2101 1968 1988 2021 1801 1964
819 749 917 1081 744 722 629 1216 1689 1552 1615 1698 1963 2163 1888 1799 1482 1873 1977 1982 2020 2448 2491 2289 2482 1947 1722 1683 1882 2052 1974 2112 2004 2318 2388 2328 2234 2579 2354 2813 2808 2679 2857 3378 2600 2698 2522 3012 3333 3164 2945 750 677 822 705 1080 1003 1034 651 1044 1108 1276 1486 1362 1445 1636 1849 2139 2310 2251 2142 2028 2032 2037 1985 1993 1924 1873 1936 1925 2094 1992 1964 1738 1756
597 614 596 563 494 739 608 833 1712 1769 1676 1620 1500 1395 1382 1432 1283 1643 1336 1933 2383 2214 2072 1989 2627 2222 1595 1470 1512 1515 1493 1720 1645 1840 2021 2200 1990 1996 2249 2570 2348 2452 2264 2568 2691 2571 3148 3483 3710 2702 2093 1764 1124 848 1175 557 646 919 822 894 796 1218 1413 1616 1383 1269 1573 2026 2142 2296 2208 2114 2042 2064 2003 1964 1915 1824 1874 1829 1842 1847 1746 1828 1668
544 381 364 337 400 370 701 921 910 1943 1891 1722 2377 1359 1716 1532 1527 1049 1125 2072 1382 1424 1544 1965 2265 1124 1518 1235 1093 1304 2059 1666 1535 1757 1983 1782 1830 1741 2020 2354 2914 2644 2788 2308 2693 3348 3321 2976 3401 2135 1658 1840 2195 1647 1601 818 614 765 1071 987 761 920 1521 1746 1829 1429 1556 1684 2020 2224 2340 2206 2137 2118 1902 1869 1818 1899 1816 1811 1798 1811 1707 1898 1858
211 234 211 307 532 335 722 753 996 1894 1626 885 1330 1376 829 1591 1860 1637 2226 1488 1629 992 1477 1530 1391 1419 1316 1318 999 1142 1067 1322 1269 1580 2067 1724 1809 1868 2142 2559 1866 1881 2064 2599 2639 2377 2796 4020 2990 2950 2489 1952 2150 1726 1404 1322 1640 1018 1105 825 942 1091 1284 1292 1159 1367 1300 1051 1607 2108 2293 2412 2264 2150 2073 2068 1997 1925 1972 1973 1796 1775 1790 1892 1824
219 276 131 308 206 424 593 748 1095 1719 2092 1526 1762 1429 1226 1656 1612 1450 1695 1550 1019 1196 1165 806 1438 1211 1271 1272 1109 1225 1077 1062 823 1070 1714 1327 1718 1691 2265 2231 1923 1782 1849 1865 1850 2009 2502 3458 3478 3550 3611 3277 2966 2741 1829 1409 1534 933 1288 875 1146 990 1234 1217 886 932 1570 1605 1528 1616 2106 2115 2238 2180 2010 2055 2062 2024 2033 1990 2043 1949 1874 1989 1962
134 101 73 198 231 391 500 706 964 1700 1766 1161 1799 2261 1414 1350 1262 1232 1240 1260 1464 1023 897 1480 2034 2221 2044 1718 1797 1674 1787 1315 918 1144 1622 1497 1222 1686 1617 1848 1701 1648 2151 2027 2058 3360 3690 3323 4462 3188 3734 2968 2445 2595 2250 1134 1130 1474 1159 1198 1321 1407 1215 1124 832 736 1407 2113 2072 1584 1722 1982 2282 2276 2350 2101 2208 2042 2048 2083 1978 2125 2004 2046 2003
18 32 17 75 182 252 432 631 1208 1457 1470 1184 1925 1681 1592 1064 884 830 1390 1380 1058 1386 1646 1958 2247 2582 2677 2903 2856 3094 2998 1192 1004 1090 1346 1456 1283 1251 1632 1976 1836 1583 1967 3067 3417 3450 3450 3067 2816 2813 2862 2867 1943 2070 1775 1331 1453 1483 1169 1069 1463 1654 1446 811 757 693 670 1131 2144 2448 2352 2325 2387 2525 2583 2492 2280 2455 2295 2263 2452 2384 2182 2466 2331
11 0 24 102 286 378 382 490 1271 1328 1140 1522 1082 1416 1215 725 738 1007 1056 1238 1185 1147 1183 1493 1801 1779 2290 2762 3077 3284 3480 2944 1975 2148 1226 1135 1270 1363 1560 2804 3191 3540 3839 3893 3552 2730 3018 3195 3975 3597 2259 2127 2248 1819 1704 2482 1612 1542 1493 1428 1087 1276 1202 818 768 763 1116 1104 1519 2072 2549 2748 2580 2425 2362 2430 2638 2612 2614 2479 2690 2571 2587 2543 2657
0 0 42 56 205 236 404 610 1026 1188 1200 1522 1544 1494 1101 1165 805 1189 1223 1366 1023 879 1086 870 1043 1670 2064 2613 3063 3264 3331 3520 4092 3166 2912 1882 2181 2967 2781 3315 3805 3476 3622 4415 3525 3448 3597 3336 2552 2681 3879 1545 2232 2305 2106 1886 1608 1277 1562 1642 1638 1745 1771 1083 982 763 757 1052 1196 1460 1820 2503 2938 2874 3038 2308 2295 2530 2813 2763 2684 2638 2611 2669 2626
0 0 24 54 228 109 294 343 829 956 1376 1094 1500 1489 1476 1393 1245 778 735 1202 568 354 834 655 930 1390 2035 2566 3085 3687 4102 3765 3518 3022 3763 3462 2710 2921 3292 3402 3872 4069 4630 4172 3443 3263 4244 2470 3600 3065 3204 3111 2134 1427 1829 1766 1508 1159 1411 1095 1356 1899 1542 1676 862 896 866 942 796 792 1299 1419 2186 3410 3370 2937 2532 2522 2749 2897 2682 2724 2658 2743 2604
0 0 38 41 86 72 184 232 637 803 1207 1643 1734 1340 1334 1648 1304 1150 1695 805 492 426 639 959 1448 1724 2335 3217 3898 3539 3704 3927 4047 4333 3761 3287 3201 2879 2924 3506 3580 4340 4702 3836 3809 3291 3169 3337 4310 3786 3560 3530 3100 1339 1526 1570 948 832 867 869 1587 1251 1275 1418 1279 1959 2046 1308 1143 911 629 687 972 1223 1873 2777 2580 2505 1879 2854 3089 2917 2794 2890 2782
0 8 26 223 164 107 440 877 539 997 1218 1970 2168 1734 1729 1821 796 1343 1335 1580 1358 1208 1094 1792 1846 1613 2198 3195 3720 3447 3573 3629 4045 4020 5035 3488 3196 3081 3683 3831 3637 4063 4207 4043 3541 3161 2886 3381 3220 3102 3887 2771 2929 2013 2008 1739 860 724 706 777 1136 1897 1807 1183 1844 1232 975 598 615 441 543 812 878 1316 593 2524 2743 2329 2174 2136 2716 2816 2799 3083 3022
0 78 319 239 319 236 293 1114 1041 934 1477 1890 1827 1621 1463 1500 884 1183 1292 1553 1430 1573 1627 1473 1852 2538 2361 2819 3539 3634 3787 3631 3557 3923 3930 4412 3296 3221 3415 3874 3830 3946 3526 2563 3901 4000 3553 3114 2827 2078 3034 2576 2666 2694 1657 1513 1392 1503 1630 1197 1342 1295 1515 1595 1128 1004 814 409 711 1079 499 657 798 544 706 804 2253 2767 2840 3027 3066 2859 2517 2906 3601
26 51 105 111 34 174 752 884 1001 1519 1818 1776 1634 1464 1286 1461 1394 854 1186 1214 1770 1503 1044 1372 1875 1980 2414 2912 3651 2985 3759 3602 4101 3712 3545 3998 4084 3565 4132 3858 3692 3868 3321 3746 3953 2963 3764 3100 3063 4418 2573 3122 2795 1862 1325 1870 2126 1345 2055 1329 1912 1106 751 1096 1243 417 462 468 906 1275 971 712 937 834 1010 729 1305 1411 2426 2650 3577 3513 3430 2943 2691
44 23 158 273 128 192 575 661 1021 1401 1747 1674 1856 1480 1475 1320 1154 784 957 1135 1971 1949 1816 1738 1893 2093 3244 3275 3336 2946 3446 3725 4121 3949 3555 3938 4413 3421 3703 3664 4643 4739 3800 3449 3455 3117 3464 3470 2906 2654 3173 3268 3493 1411 1844 1972 2934 1354 1661 1202 1252 1396 2198 1254 771 326 310 387 566 659 394 489 484 304 424 907 828 1413 1721 2403 3126 3286 4139 3850 2897
23 1 191 291 279 680 1152 1094 1072 1195 1532 1537 1924 1931 1654 1778 1129 900 845 1014 1222 1243 1335 2048 1909 2285 2410 2628 3589 3287 3350 3474 3744 3863 3234 3548 4073 3974 4294 4102 4246 3498 3930 3593 3751 3621 4533 2869 3520 4122 3052 2533 2867 1840 2318 1786 1184 1489 2031 2541 1143 1340 1475 1547 1066 441 330 374 236 355 461 554 568 509 683 826 1066 1062 1364 1870 1942 1875 2317 3573 3995
6 0 82 353 230 1303 1498 1510 1466 1171 1644 1831 1701 1598 1502 1779 1640 2184 1277 1693 1799 2285 2253 2120 2200 1946 1868 2152 3275 3332 3201 2779 2886 3064 3528 3570 3714 3901 3648 3473 4340 4640 4655 4520 3726 3558 2890 3956 2692 3343 3042 1700 1646 1793 1210 1415 1725 1400 1404 1551 1212 1243 1526 1791 1798 769 281 317 195 144 336 128 328 890 917 1160 926 1206 1354 1157 1418 2914 1985 2974 3407
18 13 140 216 302 732 1406 1594 1724 1379 1588 1957 2126 2198 2164 1823 2286 2352 2522 2603 2369 2473 2297 2234 1950 2123 1971 2443 2598 3057 3120 2708 2736 3028 3179 3898 3737 3146 3918 4255 3523 4102 3994 3884 4303 2752 2695 3239 3271 3772 3625 3314 2594 1825 1636 1080 1532 2172 3202 2978 1300 1382 1395 770 396 1581 653 582 82 3 1138 341 335 812 1925 906 940 1208 1068 1881 2555 2570 3487 3237 3144
51 24 108 124 335 723 1382 1822 1705 1801 1348 1847 2315 2546 2502 2504 3101 2621 2494 2933 2648 2494 2350 2110 1646 2079 1465 1672 2458 2264 2328 2474 2812 2916 3092 3553 3944 3858 4158 3493 3500 4507 3673 3599 3609 2844 2817 2169 2278 2976 3572 3308 3881 2992 1510 2028 1444 1943 1950 1718 2248 2370 1634 1366 930 1428 2197 1548 122 4 459 341 170 963 1324 805 648 1018 1807 1853 2877 3022 2605 3050 3188
17 61 117 168 522 989 1465 1567 1688 1716 1618 1900 2360 2630 2527 2691 2834 2444 2127 2324 2357 2458 2674 1852 1871 1992 2020 2022 2414 2029 2838 2359 1934 3126 3116 3408 3741 3664 3705 3875 3460 3673 4073 4452 2933 2048 1507 1904 2803 3747 4058 4896 4277 4563 3592 1651 2683 2675 1156 802 1500 874 1197 2455 1422 2037 1981 1800 1150 60 277 69 235 379 610 443 640 722 1640 1803 1855 2294 2989 3117 3169
37 79 75 132 896 1597 1650 1824 1899 1763 1690 1899 2361 2748 2710 2891 3049 2488 2534 2133 1648 2101 2332 2141 1847 2035 2329 1874 2034 2123 2418 2636 2522 3667 3729 3307 3484 3793 3470 3698 3584 2648 3276 3586 3044 2806 3656 3584 3550 3851 4180 4461 4343 4236 3911 2890 3731 4493 3230 2325 1034 1574 1509 1108 833 1423 1830 2200 1691 452 48 83 296 481 591 545 618 743 349 764 1441 2449 2184 1686 1689
22 84 75 259 1032 1640 1938 2076 2143 2005 2212 2040 2394 2583 2933 2897 2707 2063 2501 2154 1740 1961 1953 1891 2122 2286 2505 2269 2812 2224 2862 3202 2876 3354 3141 3531 3813 3520 3501 4268 3590 3393 3175 2943 2982 2881 2735 3282 3664 4022 3922 4212 4212 4325 3878 4767 3175 2326 3486 2608 2717 1300 835 860 706 1506 2201 2019 829 554 821 574 230 541 1134 367 416 726 840 1152 1529 1374 2461 2100 1716
39 182 93 119 436 1483 2032 2205 2360 2038 2142 2354 2528 2652 2807 2927 2658 2302 2304 2324 2152 2212 1928 2483 2488 2908 2493 2742 3393 3545 2103 3362 2805 3049 3900 3320 3593 3960 3098 3102 3328 3010 2711 3525 2698 3185 3693 3283 3269 2942 3689 3903 4922 4814 3724 4344 3557 3952 2484 3250 3997 3376 3130 1669 809 1220 963 1257 2551 441 239 723 1888 598 680 883 1188 923 910 586 831 1145 1584 1686 3057
78 110 83 186 419 1051 1771 2077 2439 2102 2287 2417 2646 2477 2718 2763 2425 2542 2340 2113 2304 2185 2599 2449 2773 2774 2723 2413 3383 3867 2510 2648 2750 2861 3317 3127 3389 4023 2498 2630 2595 3704 3403 3737 3373 2327 2258 2530 2718 3630 3629 3979 3953 4098 3387 4088 3524 4375 3181 3325 3352 2350 3046 2792 1775 1716 1785 997 1549 1279 338 50 278 415 800 910 1411 853 643 1490 1110 1189 1580 2331 3002
Wind_Speed
7 6 5 7 9 9 10 10 11 11 8 7 5 3 2 3 3 3 2 2 3 5 5 5 5 5 5 5 6 7 8 8 9 9 10 9 8 7 7 8 8 9 10 12 13 13 14 15 17 15 14 14 15 13 12 12 11 10 10 10 9 10 9 10 11 11 9 10 10 10 9 8 7 5 4 5 4 4 5 6 7 4 2 2 3
8 4 4 6 9 7 8 9 9 10 9 7 6 5 6 6 5 3 2 2 3 5 5 4 5 5 5 6 7 7 8 8 9 10 9 8 8 7 6 7 8 9 12 11 12 12 13 15 17 15 13 14 15 14 13 13 12 12 12 11 11 11 12 10 11 11 9 9 10 10 11 9 7 5 4 6 6 7 7 8 8 1 4 3 4
6 6 6 8 9 8 7 8 9 10 10 9 8 8 8 7 4 3 2 1 2 3 3 4 4 3 4 6 7 7 7 8 8 9 9 8 8 8 6 8 8 8 10 10 11 12 11 13 15 13 11 14 16 15 14 14 12 13 14 13 12 12 13 12 11 10 9 9 10 10 11 10 9 9 9 8 7 7 8 8 8 6 1 4 4
9 8 8 8 10 7 8 10 11 12 11 9 9 8 7 5 3 2 1 1 1 2 3 4 4 4 5 5 6 7 7 8 8 8 8 7 6 7 7 8 8 8 9 10 9 11 11 13 15 12 10 11 14 16 16 16 15 13 14 13 12 12 14 13 11 11 7 5 6 6 6 6 6 7 7 6 6 8 9 9 8 7 6 5 6
10 9 8 7 7 7 9 11 12 11 10 9 8 7 5 3 3 2 1 1 1 2 2 3 3 3 3 4 4 5 6 7 7 7 7 7 7 8 8 7 8 11 11 9 10 9 10 12 15 14 10 9 13 16 17 17 15 14 14 14 11 12 13 12 11 10 5 5 7 6 6 6 7 8 7 7 6 8 9 8 7 7 6 7 6
8 8 8 7 8 9 10 9 9 8 7 8 7 5 4 3 3 1 0 1 2 2 2 2 2 2 2 2 3 4 5 6 7 7 7 7 8 8 7 7 9 12 12 9 9 10 9 11 13 15 11 9 13 16 17 15 13 13 13 13 11 10 10 9 9 8 8 12 5 5 5 3 3 4 5 5 5 7 8 7 6 6 6 7 7
8 7 6 7 8 9 9 8 8 6 5 7 6 5 4 3 2 1 1 1 1 1 1 1 1 0 2 3 4 6 7 6 6 7 7 8 8 10 9 9 10 12 16 9 10 11 9 8 11 13 11 9 12 15 15 14 12 12 12 11 9 8 7 7 6 5 3 11 13 7 5 3 3 6 5 4 4 7 8 7 6 5 5 6 7
7 6 6 7 8 8 8 7 6 5 6 6 6 4 4 3 3 2 1 0 1 2 1 0 0 1 3 4 5 6 6 6 6 6 8 9 9 9 8 8 9 12 12 11 10 11 8 8 9 11 11 9 11 13 13 11 10 10 11 7 4 5 3 1 3 3 2 9 11 9 5 5 4 4 5 5 6 7 7 6 5 6 6 8 8
7 6 6 5 6 7 7 7 6 7 7 5 4 4 3 3 2 1 1 1 2 2 2 1 1 2 3 4 5 5 6 5 5 6 6 7 8 7 6 6 8 12 13 11 11 9 9 7 8 10 11 9 9 12 12 8 6 6 6 4 4 3 1 2 1 5 2 7 9 8 5 5 4 3 3 3 4 6 8 6 5 6 8 9 9
6 5 4 5 6 8 7 8 8 9 6 5 5 3 3 4 3 2 2 3 3 3 2 2 2 3 4 4 4 5 5 5 5 5 5 5 4 4 3 4 9 12 13 11 8 7 6 4 6 8 11 9 8 9 9 5 1 2 4 4 4 2 3 6 3 3 3 7 9 5 5 3 4 3 3 6 7 7 7 7 5 6 6 10 10
7 5 5 5 8 10 10 10 9 7 6 5 4 3 4 3 3 3 2 3 3 3 3 3 2 3 4 4 4 4 4 3 3 2 3 3 3 3 3 6 8 9 10 10 8 4 4 5 5 7 9 7 7 6 5 3 4 5 5 3 2 5 6 6 3 4 5 6 5 5 3 5 4 4 4 5 6 7 7 8 8 9 10 10 9
6 5 5 5 10 12 11 9 7 6 5 4 3 4 4 4 4 3 3 2 3 3 3 4 2 3 3 3 3 2 2 2 2 1 1 2 2 2 3 5 5 8 12 13 11 10 6 4 4 5 6 6 5 4 3 3 5 8 10 7 5 7 5 6 7 6 7 6 5 5 3 2 3 0 5 5 6 7 8 8 9 9 9 8 8
7 6 5 7 8 10 8 7 5 4 4 4 4 4 4 4 4 3 3 2 2 3 4 4 4 3 2 2 1 1 0 1 1 1 2 2 1 3 2 2 3 5 7 10 14 14 10 7 4 4 4 4 3 2 2 4 7 10 12 12 9 9 7 2 6 5 5 6 6 5 4 4 3 2 4 5 6 7 8 8 8 8 7 6 5
7 7 7 7 7 8 7 5 5 5 5 5 6 5 5 4 3 3 4 3 3 4 4 5 4 4 3 1 0 0 1 1 2 2 2 2 2 0 2 1 3 4 6 7 9 12 11 10 7 4 3 3 1 2 3 6 9 12 13 8 5 1 1 3 5 7 6 5 6 4 5 5 4 1 4 5 6 7 8 8 7 6 5 4 3
9 10 8 6 7 6 8 6 6 6 7 7 7 5 4 3 3 3 3 3 4 5 5 5 4 4 3 2 1 1 1 2 2 2 3 3 3 2 2 1 1 3 5 7 8 9 9 7 7 6 4 2 1 2 5 7 10 12 10 6 5 3 2 7 8 8 6 6 7 4 4 5 2 3 4 5 5 6 6 5 5 4 3 3 3
9 9 9 8 7 7 7 8 8 7 7 8 7 6 5 4 3 4 4 4 5 5 6 6 5 4 3 3 2 1 3 2 3 2 3 3 2 1 1 1 2 4 6 8 9 9 9 7 5 2 0 2 3 4 6 8 10 12 11 6 5 3 3 8 10 11 8 7 7 6 4 4 3 4 4 4 4 4 4 3 3 4 4 5 5
7 9 9 8 9 8 7 7 6 7 6 6 6 6 6 5 5 5 4 5 6 6 6 7 6 5 4 3 3 2 3 3 3 2 2 3 2 2 3 3 4 6 7 8 9 10 9 8 5 3 2 4 6 7 8 9 11 13 15 10 4 7 8 9 13 11 9 8 8 7 6 5 4 4 4 4 3 3 4 4 5 6 7 8 9
8 8 7 8 8 7 7 6 6 5 4 4 5 6 6 6 6 5 5 5 6 6 7 7 6 5 4 4 4 4 4 3 3 3 1 3 1 2 4 4 5 6 7 9 9 10 9 7 5 3 3 4 8 10 10 10 12 13 15 14 12 7 10 9 12 9 9 7 7 6 6 4 5 5 5 5 5 5 6 7 8 9 10 12 12
7 6 7 8 7 6 4 6 6 6 5 6 6 5 7 6 6 6 6 6 7 7 7 7 7 6 5 5 5 4 3 3 3 3 2 2 3 2 3 4 6 7 7 7 8 9 10 9 6 4 3 6 9 10 12 12 13 14 12 14 11 7 9 12 11 10 9 8 7 7 7 6 6 7 7 7 8 9 10 11 12 13 14 14 13
6 6 7 6 6 5 5 7 8 7 7 7 7 6 6 7 6 6 7 7 7 7 7 8 8 7 6 6 6 5 4 4 5 4 4 3 3 2 3 4 5 6 7 7 8 9 9 9 7 4 3 5 8 12 14 15 15 14 15 12 10 8 15 14 14 11 9 8 7 8 7 7 8 9 9 9 11 12 13 14 15 15 15 14 13
5 3 4 5 6 6 7 7 7 8 7 7 7 6 6 6 6 8 8 9 8 8 9 9 9 9 8 7 7 6 7 7 7 6 4 5 4 3 3 4 5 7 8 8 8 9 8 7 5 2 3 4 7 11 14 16 16 15 16 15 7 10 15 16 15 10 10 10 9 9 9 9 10 11 11 12 13 14 15 17 17 17 16 14 13
3 5 6 5 5 5 7 6 6 7 7 8 8 7 7 7 9 9 9 10 10 10 11 11 10 10 8 8 9 8 8 8 8 5 6 5 5 3 3 4 5 5 5 6 7 8 8 5 4 3 3 4 5 12 14 15 15 16 17 16 12 13 16 16 12 11 10 12 12 11 11 11 12 12 13 14 15 16 17 17 18 17 15 14 13
5 6 8 6 6 5 6 6 5 7 7 7 7 7 8 9 9 9 10 11 11 12 13 12 10 10 10 9 10 9 8 8 9 9 7 3 5 4 4 4 6 6 6 7 8 8 8 7 6 6 6 7 9 12 13 14 14 16 18 17 11 15 18 13 12 13 14 14 14 12 12 13 13 14 15 16 17 17 18 19 18 16 14 13 13
6 8 8 8 8 7 8 6 6 7 7 8 7 9 9 9 9 9 11 11 12 13 13 14 12 12 12 11 10 9 8 9 7 6 5 7 7 5 5 3 4 6 8 9 9 9 7 7 8 8 9 12 12 10 12 13 13 14 15 15 12 16 17 14 15 16 16 15 16 14 14 14 15 16 17 18 19 19 19 18 16 15 14 14 13
6 6 8 8 9 9 9 5 5 6 7 8 8 9 9 9 9 10 11 12 13 13 14 15 14 14 12 12 10 8 7 9 11 12 10 10 9 9 9 10 10 11 12 13 14 13 12 11 12 13 14 15 14 12 12 13 13 15 16 13 15 17 16 17 17 17 17 17 17 15 16 17 17 18 19 19 21 21 19 16 15 15 14 14 13
4 5 6 7 10 9 7 5 5 6 7 9 9 9 10 10 9 10 11 12 13 14 13 15 15 14 13 12 10 9 7 8 11 11 10 10 11 11 11 11 13 14 15 15 14 16 16 14 14 15 17 16 18 14 14 14 14 13 13 15 15 16 16 18 18 17 18 18 18 17 18 19 20 19 20 21 20 19 17 16 16 16 15 15 14
5 3 4 5 7 8 6 5 4 5 6 7 8 10 12 11 10 11 10 12 12 14 14 14 14 13 13 11 10 10 10 10 12 11 11 12 11 11 12 14 14 16 17 17 16 18 18 17 17 18 18 21 19 15 15 12 12 13 16 16 17 18 19 19 18 18 18 19 20 20 20 21 21 22 21 21 20 18 16 17 16 16 16 15 15
5 4 5 6 8 8 7 4 4 5 7 7 6 9 11 10 12 11 9 11 11 13 15 16 12 13 13 14 10 13 16 16 15 14 13 13 12 13 15 15 15 15 16 18 18 18 19 19 22 24 24 18 15 16 14 15 15 15 17 18 18 19 20 20 18 18 19 21 22 23 22 23 23 23 22 20 17 16 16 17 17 16 16 16 15
3 5 4 6 6 5 7 5 5 6 7 8 7 6 10 11 9 9 8 11 11 13 16 13 12 13 15 15 9 14 21 19 17 15 12 12 13 13 15 16 15 15 16 17 18 18 20 21 22 25 19 20 18 18 18 17 18 18 19 19 19 20 21 20 19 19 19 21 23 24 24 24 23 22 21 18 17 16 17 18 17 17 16 16 14
3 5 5 4 3 5 6 6 6 5 5 5 11 7 11 12 11 10 11 10 12 13 14 13 12 13 14 13 12 15 22 19 16 14 11 11 14 14 15 17 16 17 16 17 18 19 20 21 23 18 19 21 22 20 21 19 17 18 20 20 21 19 21 21 21 19 20 21 21 23 24 24 22 20 18 17 17 18 18 17 17 17 17 16 16
3 5 3 4 3 5 5 6 5 4 4 6 11 5 9 16 12 10 9 10 10 12 12 13 12 11 15 14 15 19 20 19 14 13 12 11 13 15 15 17 17 17 16 18 19 20 20 19 21 17 16 22 24 21 21 21 19 19 20 19 18 20 20 21 19 18 17 19 20 21 22 23 21 19 18 18 19 19 18 17 17 18 16 17 16
4 4 3 3 5 6 5 5 5 4 4 6 9 7 8 14 12 8 13 11 12 10 14 17 11 13 15 14 17 18 20 17 14 16 12 13 17 12 13 17 17 18 18 18 20 20 19 18 21 18 20 21 22 24 20 22 21 19 20 18 18 18 19 19 19 17 16 17 19 19 19 20 20 20 20 20 20 19 18 18 18 17 16 16 17
1 3 nan 5 6 5 3 5 5 4 4 3 5 6 9 11 8 9 10 9 14 12 17 15 12 13 16 18 18 20 16 9 10 13 15 14 16 14 15 20 17 18 18 18 21 19 15 16 19 17 20 21 21 24 22 20 18 19 18 17 17 16 17 16 13 17 15 17 17 17 18 17 18 21 22 21 21 21 20 20 19 18 17 18 18
nan nan nan nan 3 2 2 3 3 3 3 2 6 6 7 7 9 8 10 11 10 10 9 10 10 11 11 11 11 11 11 10 12 16 14 13 15 14 16 20 17 15 16 18 17 16 14 15 18 16 18 19 19 19 24 19 16 17 16 15 15 15 15 15 15 13 16 14 15 16 16 16 17 18 18 22 22 21 21 20 19 19 19 19 20
nan nan nan 4 3 3 2 2 3 2 2 3 4 5 6 6 7 9 11 10 9 9 8 8 9 8 9 9 9 9 11 11 12 16 13 15 18 20 21 19 15 17 15 16 18 15 17 16 16 16 16 19 17 16 20 18 14 14 14 14 13 13 14 12 12 13 12 11 14 14 15 16 17 17 17 16 21 22 22 21 21 21 21 21 21
nan nan nan nan 3 3 2 2 2 1 3 4 5 6 5 6 7 8 10 9 9 8 8 7 6 7 6 7 7 8 9 8 6 9 10 13 14 15 15 15 15 14 13 16 17 18 17 17 16 16 16 17 15 18 15 14 12 11 11 11 11 13 12 12 13 13 11 12 11 13 13 15 17 17 17 16 15 18 23 22 22 22 23 23 22
nan nan nan nan 3 3 1 4 4 1 2 3 5 7 7 6 6 7 7 9 8 8 7 5 5 4 4 5 6 6 7 7 6 8 9 8 10 12 11 11 12 12 14 15 15 15 15 14 16 15 15 17 15 13 12 10 9 9 11 10 11 10 10 12 10 10 9 9 11 11 12 14 14 18 16 15 15 16 20 23 23 24 24 24 24
nan nan nan nan nan nan 2 2 3 2 3 5 6 7 7 7 7 6 9 8 6 6 5 6 4 3 3 3 4 4 5 6 6 7 9 8 10 9 11 10 10 10 11 13 15 13 16 15 14 14 15 15 17 11 9 12 8 8 8 7 10 9 9 9 10 11 13 11 13 10 12 13 14 14 17 15 15 14 15 20 23 24 24 24 25
nan nan nan 6 7 3 4 5 4 3 3 6 6 7 6 7 6 5 6 8 7 6 4 4 4 3 1 2 3 3 3 4 5 4 7 7 8 8 8 10 9 8 11 10 13 12 13 17 14 14 15 14 15 11 9 9 7 6 6 7 9 9 8 9 13 10 11 14 9 10 10 12 14 13 15 11 12 13 14 15 16 17 19 25 25
nan nan 10 8 9 6 7 6 4 5 5 5 6 7 6 7 5 5 6 6 6 6 4 3 2 2 1 2 3 1 2 2 3 2 4 6 7 7 6 6 7 8 9 12 11 11 12 12 11 11 10 11 10 13 9 9 7 7 6 6 9 8 9 10 10 10 9 8 9 11 8 8 10 13 16 15 11 13 15 16 16 17 17 20 24
nan nan 11 9 nan 6 8 5 5 7 5 5 5 5 5 6 6 3 3 4 6 5 3 2 1 2 2 2 1 2 2 3 2 3 3 4 6 5 4 6 7 8 11 11 12 9 12 10 9 12 8 10 10 8 6 7 5 7 11 6 8 7 7 8 12 8 8 5 8 11 7 6 10 13 12 12 13 11 12 16 17 17 16 15 17
nan nan 11 10 8 8 8 6 6 6 5 4 4 4 6 6 4 4 3 3 5 6 4 4 2 0 1 1 2 2 2 2 2 2 3 3 4 4 3 6 6 6 9 8 8 10 8 10 8 9 8 8 9 5 4 6 7 5 8 6 7 8 6 10 11 7 8 7 7 6 8 6 9 11 11 14 16 11 13 16 17 12 13 14 13
nan nan 12 10 10 11 10 8 7 5 5 4 4 5 5 6 5 5 4 4 3 4 4 2 1 2 2 2 1 1 1 2 2 3 2 1 1 1 4 2 6 5 5 7 8 8 10 7 8 6 6 4 7 3 4 6 5 4 5 5 6 5 8 10 14 8 9 6 8 9 7 5 7 10 12 15 16 14 12 13 10 10 11 10 12
nan nan nan 10 10 14 12 9 9 6 5 5 4 6 5 6 7 10 10 8 7 8 6 3 2 2 2 2 1 1 2 3 4 4 3 3 3 2 2 2 2 3 4 6 6 6 8 6 5 5 4 6 5 3 2 5 3 1 3 5 6 4 7 9 9 9 8 8 10 6 6 5 9 12 12 15 12 10 9 9 10 9 9 11 11
nan nan 10 10 11 13 12 10 10 7 6 6 5 7 7 8 12 14 11 9 8 7 5 3 1 1 2 2 2 2 2 2 3 4 2 2 2 0 3 1 2 2 3 3 5 5 6 5 7 4 3 2 4 3 3 2 4 6 3 6 4 5 6 7 7 11 10 12 nan nan 7 2 7 12 13 9 8 10 11 9 10 10 10 8 9
nan nan 9 10 12 13 13 11 11 9 6 6 7 8 9 8 12 9 8 6 6 3 2 2 2 2 3 3 3 4 3 3 2 1 3 2 3 3 3 2 2 1 2 4 2 2 5 4 4 2 4 3 2 3 3 3 2 5 4 4 3 4 6 10 7 9 10 12 5 nan 8 2 5 10 9 10 11 13 9 8 9 8 8 9 9
nan nan 9 10 13 14 14 11 12 11 9 8 7 9 9 9 7 7 6 4 5 3 3 3 2 1 4 1 1 3 3 5 4 4 3 3 2 2 1 0 0 2 2 3 1 3 1 1 1 0 0 3 2 3 6 3 5 6 4 4 3 6 6 6 8 7 10 11 11 nan 5 nan 7 8 10 11 10 11 9 6 9 8 8 9 8
nan nan nan 10 13 15 14 12 13 11 11 10 8 9 10 9 8 7 5 6 4 5 4 5 3 6 3 1 2 2 3 3 2 2 4 3 2 2 1 2 3 3 1 3 2 2 2 2 2 1 1 1 2 1 4 5 6 7 8 9 5 9 9 6 6 6 6 8 11 8 nan nan 8 7 10 12 8 5 6 10 7 7 5 5 4
nan nan nan 12 14 15 14 13 13 12 13 12 10 10 10 9 8 8 9 7 7 7 7 6 6 6 5 0 0 2 1 1 2 4 3 3 2 2 2 1 1 3 5 3 2 2 4 3 3 1 2 3 3 3 3 4 5 5 7 8 9 6 8 6 8 9 8 8 8 10 9 8 7 9 11 9 5 3 6 9 9 4 3 3 5
nan 12 nan 13 14 15 14 12 12 13 14 13 11 11 10 10 9 9 9 8 9 8 7 8 7 7 4 4 3 1 2 2 3 3 2 2 2 2 2 2 1 1 2 3 1 2 1 1 1 0 1 2 4 5 5 3 3 6 6 3 7 9 10 6 6 7 8 8 9 6 5 6 5 6 12 11 9 3 5 5 7 7 2 3 1
nan 12 nan 12 13 14 14 12 12 13 15 14 13 11 11 9 10 9 9 8 9 9 8 9 7 7 5 4 4 1 2 4 3 2 3 4 3 3 3 2 1 2 1 2 3 2 1 1 1 2 1 1 6 4 6 6 4 5 6 4 6 6 6 7 7 9 8 7 8 10 7 nan 3 5 10 12 14 10 9 6 7 4 5 4 7
Wind_Direction
36 16 25 5 31 10 358 8 6 358 355 10 9 3 12 24 37 61 90 146 176 185 187 192 194 200 204 203 204 203 206 208 211 214 211 214 215 221 236 251 262 268 271 275 281 283 281 279 275 276 277 277 276 283 295 295 288 288 286 279 275 275 273 273 280 271 265 255 247 240 225 213 214 223 244 274 275 259 253 252 242 221 150 134 210
12 17 45 40 35 16 3 20 27 0 359 8 15 15 23 29 35 52 82 143 176 183 182 178 182 184 187 189 193 198 202 201 203 209 214 214 216 227 243 258 265 269 275 282 286 289 284 281 279 280 285 285 281 286 288 284 282 289 291 288 286 286 284 285 287 283 268 252 247 245 233 221 214 219 243 244 235 233 234 246 256 262 77 235 225
10 23 30 19 16 15 4 13 21 7 6 8 13 18 24 24 25 36 79 139 173 166 161 161 170 184 194 195 198 202 204 202 203 208 211 219 233 235 240 274 274 284 287 291 297 293 288 285 283 283 287 291 288 279 281 277 278 287 291 292 290 291 293 292 287 280 271 253 244 239 231 220 214 220 231 233 237 243 247 253 260 264 133 228 211
3 11 19 10 3 11 357 358 10 9 6 4 14 20 19 7 14 33 56 117 137 162 165 176 185 187 193 201 202 201 202 203 203 210 220 232 256 281 272 270 290 291 291 287 295 303 301 300 292 289 287 287 279 278 279 279 282 287 289 289 292 292 297 300 301 292 277 267 248 220 159 160 188 233 241 248 248 247 256 258 260 260 251 226 229
0 10 13 17 8 14 7 2 4 5 359 3 12 17 4 1 16 31 48 98 147 166 175 171 168 174 194 201 202 207 209 208 210 221 235 253 269 278 292 308 306 300 294 301 308 309 311 310 301 299 293 278 278 274 278 282 286 287 287 288 290 292 296 302 306 301 280 231 235 192 161 174 161 211 228 235 237 258 260 262 259 259 251 242 233
5 16 13 16 16 18 17 17 10 3 4 4 9 1 355 8 11 14 63 127 136 152 158 153 158 190 217 222 226 228 225 225 227 234 247 261 280 291 304 310 311 299 289 289 302 309 311 308 305 299 293 286 278 276 274 280 285 281 280 284 290 290 292 303 303 260 194 149 181 135 156 160 147 136 250 240 240 260 271 266 259 251 254 254 242
358 26 23 25 29 24 27 18 16 12 9 5 1 352 359 2 347 338 42 43 55 169 170 165 149 219 261 250 243 238 234 233 238 257 270 274 283 296 313 317 304 294 295 321 312 311 316 319 308 296 289 288 280 276 274 276 282 280 280 280 282 276 278 294 281 257 153 119 120 133 139 153 151 129 242 256 258 258 263 272 281 289 280 268 260
19 40 32 35 33 26 25 24 19 19 30 11 348 346 353 344 318 324 356 124 201 203 207 177 192 241 248 255 257 252 245 249 256 267 273 278 282 282 276 294 294 280 288 300 309 312 317 316 305 295 295 294 286 280 277 279 276 271 266 262 261 259 269 311 290 306 48 119 123 128 131 133 134 112 247 259 263 266 275 285 292 290 288 280 274
22 19 34 43 40 11 30 30 32 34 38 357 343 342 339 297 280 285 275 239 234 235 219 219 304 273 265 266 264 265 268 269 271 271 266 269 272 277 300 297 291 291 305 317 313 315 328 321 311 301 296 294 289 278 277 275 263 254 256 240 207 225 275 55 57 294 106 112 114 118 127 122 127 132 211 243 282 294 301 308 293 285 281 276 274
9 19 32 59 54 28 34 37 39 49 21 5 347 337 303 271 265 276 267 257 255 278 281 310 332 306 295 285 287 282 274 269 266 259 254 257 254 267 292 291 291 300 310 314 313 317 326 325 319 304 293 290 288 282 276 278 243 179 228 219 178 153 96 122 207 243 131 109 104 131 125 196 147 152 258 278 292 293 282 288 305 294 286 278 280
352 15 32 34 26 31 34 38 33 26 15 0 344 322 296 282 298 296 284 277 287 297 305 321 322 309 299 298 308 290 269 258 254 245 231 235 265 286 294 298 296 306 303 309 322 328 12 358 326 295 287 288 285 278 267 235 155 151 172 174 145 90 100 125 149 118 104 93 126 134 182 230 126 116 273 282 289 291 288 283 281 280 283 284 286
351 8 20 37 21 27 31 19 19 17 4 349 336 320 325 341 332 310 296 292 300 301 319 331 341 325 309 313 329 306 265 243 221 206 209 216 233 280 289 288 317 326 329 330 326 339 8 27 329 289 278 284 281 266 247 175 158 162 151 144 103 70 79 96 112 114 109 116 127 121 125 112 97 340 288 298 302 300 292 284 279 282 286 293 294
355 4 15 30 30 10 9 20 17 8 359 348 353 358 356 353 333 326 321 323 325 335 348 357 8 4 337 329 344 313 240 167 153 193 207 197 208 230 192 323 344 318 312 318 318 322 349 1 349 321 314 298 262 220 169 139 155 152 141 122 76 54 68 133 127 136 125 126 120 107 102 95 82 332 302 308 307 299 293 290 290 292 294 303 310
356 6 23 31 44 7 7 7 12 5 354 353 4 12 4 351 339 342 339 343 356 6 23 16 20 27 29 41 41 81 102 137 143 157 180 174 149 162 16 18 319 306 304 308 308 315 324 347 349 341 331 306 244 153 168 159 151 146 141 192 225 301 254 171 176 143 119 110 99 87 89 90 81 19 313 313 313 302 296 295 298 301 312 325 338
1 2 7 21 34 35 357 8 10 3 353 354 2 8 8 356 347 0 358 0 16 29 34 31 31 41 65 77 77 67 97 87 91 119 133 139 135 153 163 293 314 323 313 306 310 315 321 328 343 347 348 327 272 166 150 148 144 139 141 185 206 195 171 115 119 101 95 88 84 77 81 83 342 324 313 316 310 297 292 301 311 321 350 18 28
2 355 356 16 23 31 42 17 5 358 350 350 358 359 2 4 12 21 18 26 32 44 41 40 43 52 62 79 79 87 92 72 72 102 127 127 119 68 36 360 2 342 331 319 319 322 324 324 332 355 76 191 174 152 143 137 134 134 146 164 157 138 107 109 104 94 94 91 87 86 78 66 342 325 332 332 313 308 312 330 348 12 33 45 50
5 3 1 2 12 34 37 40 22 349 347 354 354 351 2 18 26 20 29 31 36 38 45 47 44 35 48 67 71 54 45 43 36 25 109 106 56 9 331 352 7 355 343 333 323 319 318 324 341 16 116 138 141 140 133 131 134 132 137 139 137 142 133 130 108 100 94 87 81 76 71 65 17 350 357 6 358 346 357 18 34 43 51 58 62
20 10 0 7 22 29 35 36 36 37 38 24 352 352 8 22 28 26 26 35 40 43 53 51 46 41 44 66 55 38 27 19 17 351 359 87 89 343 333 355 8 4 350 337 321 316 322 334 353 23 65 143 142 134 131 130 130 130 130 134 142 140 122 117 110 97 91 89 96 89 87 31 20 35 38 35 33 39 44 49 54 56 59 67 71
25 11 11 12 17 27 25 49 50 39 43 67 60 28 14 29 32 35 36 39 48 47 49 56 55 52 41 51 50 38 20 7 7 2 12 69 69 360 345 10 9 358 346 334 331 327 330 340 359 31 93 121 122 126 128 128 121 120 118 116 118 121 108 99 85 81 81 85 82 82 72 46 53 52 51 54 56 61 61 62 65 67 71 74 78
41 29 24 19 14 15 37 52 51 46 49 56 50 43 34 23 35 39 43 48 52 55 52 58 60 57 49 47 46 47 31 43 7 40 24 53 103 85 350 5 8 355 344 339 341 340 340 347 354 12 77 102 121 125 125 124 120 115 115 110 128 141 107 98 99 82 85 80 75 81 63 59 59 61 62 64 69 69 69 71 73 76 78 81 85
71 69 64 36 8 10 33 55 52 43 46 47 55 55 46 33 43 35 46 54 56 56 53 57 60 52 47 47 59 81 84 73 67 69 53 76 74 53 13 21 14 7 358 350 350 356 352 352 351 357 71 94 112 121 121 121 119 117 111 104 133 107 95 95 89 90 83 81 78 79 70 66 69 71 74 74 72 71 74 76 77 80 82 85 88
86 71 65 51 33 29 33 39 65 55 52 69 74 77 68 57 63 60 65 64 66 63 73 73 63 68 46 79 96 98 99 97 93 70 85 70 80 54 56 60 51 35 21 11 9 2 3 12 22 49 87 99 98 117 118 113 110 106 101 107 116 96 88 93 95 90 84 88 89 79 69 67 73 79 75 74 74 76 77 80 81 82 83 84 85
68 74 76 56 58 56 58 39 46 61 62 75 87 79 69 78 61 56 61 61 70 75 83 80 82 81 83 91 104 105 103 111 97 92 95 45 65 61 61 63 63 61 58 44 42 25 14 24 43 55 69 56 110 114 112 106 103 90 92 98 101 95 94 91 92 90 90 91 89 71 72 73 74 76 75 74 74 75 77 77 81 82 82 81 79
37 60 69 71 59 53 45 29 35 56 78 86 84 81 80 74 67 64 64 72 77 83 84 87 88 86 87 93 102 108 114 120 107 90 70 86 78 42 30 42 55 68 64 77 68 66 58 66 68 60 82 105 116 106 101 102 99 92 92 89 77 80 80 84 85 87 90 86 85 67 70 70 70 68 70 72 74 75 75 78 81 84 82 77 73
30 34 64 62 59 58 45 21 29 58 74 88 78 81 75 70 65 69 77 80 85 83 85 89 96 89 87 87 91 90 89 89 79 85 89 82 80 76 79 84 88 84 74 85 84 80 85 92 97 101 107 106 105 102 101 98 96 87 81 79 68 63 70 81 92 95 95 93 83 68 65 66 66 67 67 69 70 72 75 78 81 79 76 73 69
73 50 40 46 42 48 43 35 32 49 74 85 87 90 80 77 75 68 75 87 87 90 89 90 93 97 92 89 94 83 80 82 75 83 87 87 83 87 97 93 85 96 98 91 89 83 86 89 94 101 107 104 109 103 89 87 86 93 89 84 83 91 94 91 92 93 93 87 78 64 63 63 64 65 67 68 69 71 74 76 75 73 71 68 66
84 66 54 52 67 56 43 40 52 72 66 81 93 93 89 89 96 82 74 74 85 93 94 94 92 98 108 105 102 96 89 85 84 84 79 81 81 83 92 92 88 92 94 92 85 86 91 94 98 94 101 102 97 105 100 102 100 89 91 92 94 96 98 97 93 90 87 84 74 58 59 60 61 62 64 66 67 69 71 70 70 69 66 65 64
77 40 51 52 44 31 42 25 71 72 78 72 72 94 102 105 115 110 111 102 91 102 103 103 100 105 110 100 90 106 99 91 87 82 74 83 87 88 98 95 92 89 87 93 86 86 88 92 94 95 86 98 98 102 105 100 100 102 100 101 102 100 97 96 92 87 83 80 76 64 59 58 58 60 63 64 66 68 66 65 67 66 62 61 57
33 47 58 49 41 34 38 20 42 56 66 76 78 93 96 97 87 90 99 86 102 104 102 102 100 97 94 84 94 95 92 91 92 86 86 98 97 97 102 99 95 91 89 91 89 85 87 86 89 92 98 96 97 99 98 98 96 101 103 103 106 101 98 93 85 78 78 76 75 67 58 58 59 58 59 61 63 64 64 62 61 59 59 57 56
49 40 41 65 52 35 25 32 36 60 76 123 122 90 95 87 77 71 69 65 81 86 89 96 94 90 94 94 85 82 85 88 92 98 105 112 111 109 105 99 99 95 88 90 87 86 86 86 88 84 97 105 100 95 93 92 94 97 99 99 96 98 96 89 85 78 73 73 74 69 57 58 57 57 58 58 58 57 57 58 56 54 53 51 50
47 45 38 54 55 43 33 37 42 51 47 43 74 71 100 102 93 100 89 83 93 96 88 91 90 115 112 108 99 82 84 89 94 92 91 86 83 84 99 109 106 99 96 95 92 88 89 97 100 99 103 103 100 96 97 100 103 95 94 95 96 90 89 85 81 74 68 72 71 69 63 54 54 54 55 54 55 54 53 51 50 51 49 54 57
26 20 39 40 27 20 24 37 42 62 68 49 45 30 54 75 79 82 81 72 63 72 85 76 57 54 63 67 68 70 75 75 94 93 78 75 79 80 83 83 81 86 85 84 86 86 87 97 102 106 97 96 103 105 102 98 97 100 95 91 89 89 87 84 74 73 66 64 65 67 65 61 52 49 50 49 50 51 50 49 50 54 57 60 63
357 333 nan 19 9 11 20 36 57 80 69 49 88 82 43 63 68 74 73 57 63 48 55 62 69 49 45 41 39 41 37 42 78 84 86 97 96 92 94 83 77 71 75 75 72 81 87 87 91 98 106 101 102 104 105 96 93 94 94 93 92 86 86 90 89 69 59 55 60 62 63 62 60 51 49 50 48 47 48 47 49 53 56 60 64
nan nan nan nan 10 51 54 60 64 84 112 125 120 100 92 93 94 91 87 81 77 88 79 81 78 78 77 76 76 63 44 0 26 44 64 79 76 88 92 90 89 90 89 83 82 89 88 87 92 96 94 101 91 90 89 95 98 92 91 87 85 85 82 77 78 80 69 57 53 58 60 61 59 60 58 51 51 51 51 53 55 56 59 62 61
nan nan nan 323 329 18 55 66 64 92 131 155 102 108 102 98 101 97 91 96 90 83 75 73 82 80 82 85 78 75 65 20 21 41 29 37 45 50 55 64 68 74 82 90 90 87 84 84 81 83 84 89 90 101 100 100 99 98 90 84 86 83 87 88 87 77 77 69 59 51 55 55 56 58 58 61 60 57 56 58 59 60 62 62 61
nan nan nan nan 324 347 32 315 355 98 174 152 148 134 134 122 115 104 100 92 90 82 81 74 72 77 83 84 75 74 68 64 42 47 36 46 54 57 57 63 65 69 76 84 79 80 79 80 89 89 92 71 81 91 91 90 90 91 97 96 83 75 73 72 71 69 61 67 71 67 59 55 53 59 55 64 67 66 59 60 61 63 63 62 61
nan nan nan nan 282 329 349 317 333 334 212 201 174 153 158 147 129 101 90 100 90 88 96 94 85 80 96 84 83 79 78 68 43 65 65 48 63 59 64 72 75 70 72 74 79 85 82 82 84 92 87 96 79 61 83 94 88 81 80 81 87 79 77 78 80 93 96 87 74 64 66 71 60 48 59 64 67 70 64 61 62 61 61 60 59
nan nan nan nan nan nan 330 306 284 268 208 192 184 174 168 154 134 130 110 99 84 87 91 101 111 116 101 88 78 70 65 61 57 53 55 57 45 49 55 57 72 82 82 81 83 83 90 90 92 89 90 94 102 86 80 85 78 83 90 84 81 93 91 97 86 74 77 74 81 69 64 67 70 70 62 56 60 70 74 70 66 64 61 59 56
nan nan nan 229 231 211 225 236 267 257 225 205 190 185 181 146 153 140 121 118 114 111 103 114 98 88 31 74 64 63 53 48 55 63 82 62 51 46 56 50 54 72 81 83 75 76 80 84 78 83 87 92 96 111 106 91 92 78 69 87 97 80 83 67 75 72 77 79 81 68 56 61 71 68 82 55 65 72 76 78 73 70 65 56 53
nan nan 234 230 229 211 228 223 222 252 228 210 191 194 179 153 166 157 135 122 121 119 111 88 107 104 6 27 73 44 38 42 32 51 63 70 68 48 50 67 59 61 79 80 79 78 70 72 74 83 100 104 105 98 106 105 127 122 98 78 83 86 67 66 71 77 75 81 91 96 75 65 78 80 72 77 63 65 74 73 69 64 60 54 51
nan nan 241 239 nan 214 237 236 219 241 220 209 193 194 184 169 175 160 142 134 146 133 117 154 134 91 26 23 38 360 15 5 12 3 55 69 80 58 41 73 57 44 61 71 72 55 65 71 85 88 75 82 86 83 107 120 109 120 117 103 102 91 90 93 88 77 79 96 75 74 84 86 77 82 94 94 84 80 79 73 65 57 54 51 53
nan nan 245 236 231 240 249 238 230 234 231 222 202 196 195 176 185 174 169 182 172 138 165 170 142 68 138 76 60 329 345 347 323 336 15 28 58 64 11 43 71 56 61 67 60 65 67 71 69 75 69 76 86 102 139 124 108 79 97 96 86 89 109 90 80 73 91 82 84 90 86 78 83 91 91 88 94 71 69 72 73 63 42 48 51
nan nan 252 242 237 231 228 226 230 234 230 237 198 211 186 191 182 187 194 210 197 179 177 229 37 10 20 72 166 308 352 314 318 315 348 37 204 137 58 23 56 47 53 53 52 56 70 51 61 81 80 79 93 86 56 85 91 131 132 116 123 116 117 106 98 97 89 95 78 79 73 73 76 76 72 80 84 77 65 70 76 64 64 71 54
nan nan nan 252 239 228 231 221 230 226 221 232 208 220 200 195 197 203 202 213 208 206 202 176 120 8 1 2 94 15 359 344 342 342 324 342 28 27 96 20 39 42 45 58 51 53 60 75 61 38 90 75 65 72 92 124 141 111 120 98 85 91 102 102 91 98 118 103 91 101 94 108 93 86 74 73 74 86 74 65 69 71 70 69 81
nan nan 264 256 236 250 240 224 227 224 216 232 212 225 218 209 218 209 203 215 215 217 215 180 187 171 5 11 21 18 39 353 343 346 354 308 279 299 84 40 27 27 41 58 70 52 59 29 49 43 57 101 116 140 136 159 171 135 120 128 139 124 105 94 109 122 123 118 nan nan 137 94 90 86 94 96 89 75 70 57 53 60 68 74 80
nan nan 266 265 252 249 247 232 225 219 222 232 214 231 226 229 228 215 216 213 234 229 232 242 275 27 1 351 358 12 6 12 357 37 322 330 341 6 52 348 354 324 229 138 87 54 61 36 48 71 12 56 96 115 119 150 166 121 148 128 125 102 107 126 123 111 122 114 129 nan 102 74 80 84 85 81 74 80 69 58 57 61 69 75 71
nan nan 268 267 260 255 251 239 232 215 220 229 219 229 234 232 245 246 232 225 249 228 220 273 277 222 214 341 1 9 347 29 5 329 22 2 13 30 345 287 338 321 337 35 207 122 306 106 244 330 142 81 117 134 133 145 151 124 103 112 145 115 117 124 127 128 132 130 130 nan 90 nan 52 59 72 74 70 81 84 62 57 63 68 69 68
nan nan nan 271 259 254 254 241 234 217 216 234 219 227 234 234 234 242 228 234 256 246 240 242 262 255 276 344 26 6 19 41 333 340 35 1 32 32 50 263 174 174 237 236 262 259 190 234 276 98 100 156 91 123 124 143 134 135 159 139 139 140 126 111 119 125 107 119 131 120 nan nan 47 46 58 68 71 90 118 109 87 57 63 83 102
nan nan nan 268 258 259 255 240 236 225 221 243 223 229 228 233 236 230 227 216 230 242 242 241 243 258 286 320 104 350 353 32 333 25 10 15 31 41 59 277 269 106 214 168 294 249 213 202 218 171 76 54 60 51 92 107 128 141 138 152 144 124 105 134 147 127 124 145 143 150 152 160 170 157 129 107 60 92 85 86 110 91 66 48 77
nan 300 nan 282 272 261 258 248 238 228 228 240 230 233 233 229 235 227 239 226 229 236 239 246 249 252 277 282 247 306 341 350 16 30 29 22 20 45 48 1 6 204 251 140 213 266 328 238 57 185 113 163 145 106 88 90 119 137 128 149 151 143 138 143 107 117 147 157 138 143 144 147 170 139 119 136 145 88 101 116 124 104 51 61 70
nan 305 nan 289 279 274 267 256 245 231 232 240 233 237 238 231 230 229 241 236 236 242 236 247 252 257 267 275 271 134 7 337 6 36 20 25 4 36 38 342 129 295 51 72 85 83 344 28 341 52 279 169 106 127 116 102 95 100 137 183 135 114 122 128 160 154 151 137 149 153 136 nan 111 112 147 148 142 152 145 132 106 165 161 204 189